This is the latest recevied weather packets stored in our database for station/object KC4GS-13. If no packets are shown the sender has not sent any weather packets the latest 10 day(s).
| Time | Temp. | Humidity | Pressure | Rain* | Wind** | Luminosity | Snow |
|---|---|---|---|---|---|---|---|
| 1787873255 | 25° C | 92% | 1015.7 hPa | 0 mm | - | 6 W/m² | - |
| 1787872954 | 25.56° C | 91% | 1015.5 hPa | 0 mm | - | 6 W/m² | - |
| 1787872649 | 25.56° C | 91% | 1015.8 hPa | 0 mm | - | 6 W/m² | - |
| 1787872344 | 25.56° C | 91% | 1015.8 hPa | 0 mm | - | 6 W/m² | - |
| 1787872039 | 25.56° C | 90% | 1016.1 hPa | 0 mm | - | 7 W/m² | - |
| 1787871735 | 25.56° C | 90% | 1016.2 hPa | 0 mm | - | 8 W/m² | - |
| 1787871430 | 25.56° C | 90% | 1016 hPa | 0 mm | - | 7 W/m² | - |
| 1787871125 | 25.56° C | 90% | 1015.9 hPa | 0 mm | - | 7 W/m² | - |
| 1787870824 | 25.56° C | 90% | 1016.2 hPa | 0 mm | - | 8 W/m² | - |
| 1787870519 | 26.11° C | 90% | 1015.9 hPa | 0 mm | - | 9 W/m² | - |
| 1787870215 | 26.11° C | 89% | 1016.2 hPa | 0 mm | - | 9 W/m² | - |
| 1787869909 | 26.11° C | 89% | 1015.8 hPa | 0 mm | - | 8 W/m² | - |
| 1787869608 | 26.11° C | 89% | 1016.1 hPa | 0 mm | - | 10 W/m² | - |
| 1787869304 | 26.67° C | 89% | 1015.9 hPa | 0 mm | - | 12 W/m² | - |
| 1787869002 | 26.67° C | 88% | 1015.8 hPa | 0 mm | - | 16 W/m² | - |
| 1787868696 | 26.67° C | 87% | 1016 hPa | 0 mm | - | 19 W/m² | - |
| 1787868394 | 26.67° C | 86% | 1015.8 hPa | 0 mm | - | 21 W/m² | - |
| 1787868089 | 26.67° C | 85% | 1015.7 hPa | 0 mm | - | 23 W/m² | - |
| 1787867784 | 27.22° C | 84% | 1015.9 hPa | 0 mm | - | 26 W/m² | - |
| 1787867480 | 27.22° C | 84% | 1015.9 hPa | 0 mm | - | 26 W/m² | - |
| 1787867175 | 27.22° C | 83% | 1015.5 hPa | 0 mm | - | 28 W/m² | - |
| 1787866870 | 27.22° C | 83% | 1015.5 hPa | 0 mm | - | 32 W/m² | - |
| 1787866565 | 27.22° C | 82% | 1015.5 hPa | 0 mm | - | 43 W/m² | - |
| 1787866263 | 27.22° C | 82% | 1015.9 hPa | 0 mm | - | 52 W/m² | - |
| 1787865959 | 27.22° C | 82% | 1015.8 hPa | 0 mm | - | 66 W/m² | - |
* Rain latest hour (hover to see other rain measurements)
** Current wind speed in m/s (hover to see current wind gust speed)